Regional Weather Roundup
Issued by NWS Sioux Falls, SD

Home | Current Version | Previous Version | Text Only | Print | Product List | Glossary On
Versions: 1 2 3 4 5 6 7 8 9 10 11 12 13 14 15 16 17 18 19 20 21 22 23 24 25 26 27 28 29 30 31 32 33 34 35 36 37 38 39 40 41 42 43 44 45 46 47 48 49 50
000
ASUS43 KFSD 272110
RWRFSD

WEATHER ROUNDUP FOR SE SOUTH DAKOTA/SW MINNESOTA/NW IOWA
NATIONAL WEATHER SERVICE SIOUX FALLS SD
400 PM CDT WED JUL 27 2016

NOTE: "FAIR" INDICATES FEW OR NO CLOUDS BELOW 12,000 FEET WITH NO
SIGNIFICANT WEATHER AND OR OBSTRUCTIONS TO VISIBILITY.


SDZ038>040-050-052>070-272200-
SOUTHEAST SOUTH DAKOTA

CITY           SKY/WX    TMP DP  RH WIND       PRES   REMARKS
BROOKINGS      MOSUNNY   78  64  61 N7        30.02R
CHAMBERLAIN    PTSUNNY   86  65  49 NE7       30.02S
HURON          SUNNY     83  63  50 NE13      30.00F
MADISON        FAIR      77  68  73 N10G16    30.02F
MITCHELL       MOSUNNY   85  62  46 NE10      29.99F
SIOUX FALLS    MOSUNNY   82  66  58 N9        29.98F
WINNER         FAIR      82  64  54 NE10      30.02S
YANKTON        SUNNY     86  57  37 W7        29.96F
$$

MNZ071-072-080-081-089-090-097-098-272200-
SOUTHWEST MINNESOTA

CITY           SKY/WX    TMP DP  RH WIND       PRES   REMARKS
FAIRMONT       PTSUNNY   82  66  57 NW12      29.94F
JACKSON        MOSUNNY   81  64  57 NW8       29.98S
LUVERNE        MOSUNNY   81  63  54 N3        30.00S
MARSHALL       MOSUNNY   79  66  64 N12       29.99S
MONTEVIDEO     MOSUNNY   81  66  61 N13       30.01R
PIPESTONE      MOSUNNY   82  63  51 N10       30.02R
REDWOOD FALLS  MOSUNNY   80  63  55 NW12      29.96S
TRACY          MOSUNNY   80  68  66 NW12      29.99S
WINDOM         MOSUNNY   81  66  61 NW8       29.98S
WORTHINGTON    MOSUNNY   80  68  66 NW10      30.00S
$$

IAZ001>003-012>014-020>022-031-032-NEZ013-014-SDZ071-272200-
NORTHWEST IOWA

CITY           SKY/WX    TMP DP  RH WIND       PRES   REMARKS
CHEROKEE       PTSUNNY   85  68  57 NW9G18    29.97S
DENISON        SUNNY     81  68  65 VRB5      29.97S
ESTHERVILLE    CLOUDY    82  72  71 NW8       29.95S
LE MARS        MOSUNNY   86  66  51 W6        29.97F
SHELDON        MOSUNNY   82  70  65 VRB6G13   29.97S
SIOUX CITY     CLOUDY    89  68  49 W3        29.96F
SPENCER        MOSUNNY   85  68  56 NW9       29.96F
STORM LAKE     SUNNY     82  72  69 VRB6      29.98F
$$

ABBREVIATIONS USED IN REMARKS
   TC - TEMPERATURE IN CELSIUS
  WCI - WIND CHILL INDEX
   HX - HEAT INDEX
  VSB - VISIBILITY




USA.gov is the U.S. government's official web portal to all federal, state and local government web resources and services.